EHI
6 6 5 4 3 3 4 3 2 1 1 1 0 0 1 2 2 3 5 3 1 1 1 2 4 6 8 8 4 3 4 3 1 1 2 3 3 3 3 1 0 0 0
5 4 4 3 2 2 3 4 3 2 2 1 0 0 0 1 1 2 3 2 1 1 1 2 3 5 7 8 7 4 4 4 3 2 2 3 2 2 2 1 0 0 0
4 2 2 2 1 1 2 3 3 3 2 1 0 0 0 0 0 0 1 1 1 2 2 3 4 5 7 8 8 6 4 6 6 5 3 2 1 1 1 1 0 0 0
3 1 1 1 0 1 2 3 3 2 1 0 0 0 0 0 0 0 0 0 0 1 3 7 9 9 9 9 7 5 4 7 9 8 5 3 1 0 0 0 0 0 0
2 1 0 1 1 1 3 3 1 1 0 0 0 0 0 1 1 0 0 0 0 0 3 6 9 11 11 9 7 5 4 5 7 8 7 5 3 1 0 0 0 0 0
1 1 1 2 2 2 2 2 1 0 0 0 1 1 1 2 2 1 0 0 0 0 1 2 3 6 8 9 7 5 4 4 5 6 6 5 3 1 0 0 0 0 0
1 2 3 3 3 3 2 1 0 0 0 0 1 2 1 1 1 1 0 0 0 0 0 0 0 2 5 7 8 6 5 5 5 4 4 5 3 1 0 0 0 1 1
1 2 3 2 3 3 1 0 0 0 0 0 1 1 1 1 1 1 1 0 0 0 0 0 0 1 2 5 7 7 5 3 3 2 2 3 3 2 1 0 1 2 2
2 2 1 1 1 1 0 0 0 1 1 1 1 1 0 0 1 1 0 0 0 0 0 0 0 1 2 4 5 5 3 1 1 0 1 1 1 1 1 0 1 2 3
4 3 2 1 0 0 1 1 2 3 3 2 2 3 2 2 2 2 1 0 0 1 1 1 1 1 2 3 3 2 2 1 0 1 2 2 1 1 0 0 0 1 2
4 4 2 1 1 1 2 3 4 5 5 5 4 4 5 5 5 4 3 1 1 1 2 3 2 1 1 1 2 2 2 1 0 1 2 4 2 1 0 0 0 0 1
3 2 2 1 1 2 3 3 4 6 6 6 6 6 6 7 8 6 4 3 2 1 2 2 2 0 0 1 3 3 2 0 0 0 1 2 2 1 0 0 0 0 0
1 2 2 2 1 1 1 1 2 4 6 6 6 6 6 7 8 6 5 4 3 1 2 2 1 0 1 2 4 4 2 0 0 0 0 1 1 0 0 1 1 0 1
1 3 4 3 1 0 0 0 1 2 4 5 6 6 6 6 7 6 5 5 3 1 1 2 2 2 3 4 4 3 2 1 0 0 0 0 0 0 0 1 1 1 1
2 4 4 3 1 0 0 1 1 2 3 4 5 5 5 5 6 6 7 7 5 2 0 1 1 2 4 5 4 3 2 1 0 0 0 0 0 0 0 1 1 0 1
6 6 5 3 2 1 1 2 3 3 3 4 6 6 6 5 6 8 9 9 7 4 2 1 1 3 5 6 4 3 3 2 0 0 0 0 0 0 0 0 0 0 0
9 8 7 7 5 3 2 3 3 3 3 4 6 8 9 8 7 8 9 8 7 6 5 5 4 6 8 8 6 4 3 3 1 0 0 0 0 0 0 0 0 0 0
8 8 9 9 8 6 5 4 4 4 3 4 6 9 10 9 9 8 8 7 7 6 6 7 7 8 10 10 8 5 3 3 2 0 0 0 0 0 0 0 0 0 0
8 9 9 9 8 8 8 7 5 4 3 3 6 9 9 9 8 7 6 6 6 6 6 6 7 8 9 10 8 6 4 3 2 0 0 0 0 0 0 0 0 0 0
10 11 12 11 9 9 11 10 7 5 3 2 4 7 7 7 6 5 5 5 6 6 5 5 5 7 9 8 7 6 5 3 2 1 0 0 0 0 0 0 0 0 0
12 12 11 11 10 9 9 9 7 6 4 3 4 4 5 5 4 3 3 4 5 6 6 4 4 7 8 8 6 4 3 2 1 1 1 1 1 0 0 0 0 0 0
14 11 9 8 8 6 4 4 5 6 6 6 6 5 4 4 4 3 2 2 2 4 5 5 5 6 8 7 6 4 3 2 1 1 2 2 2 1 0 0 0 0 0
15 12 8 7 6 4 1 1 2 4 6 8 9 8 7 5 5 4 2 1 1 2 3 5 5 6 7 7 6 5 5 4 2 1 2 2 3 2 1 0 0 0 0
14 12 9 8 6 4 1 0 1 3 5 7 8 9 9 8 7 5 4 3 3 3 3 3 4 5 6 6 6 6 6 4 2 2 3 4 4 3 1 0 0 0 0
12 10 8 7 6 5 3 1 1 3 4 5 6 7 8 8 7 6 6 6 7 7 5 3 3 3 3 4 4 5 5 2 1 2 4 6 6 5 2 0 0 0 0
9 9 8 6 6 6 3 1 1 3 4 4 4 5 7 7 6 6 7 9 10 9 7 5 3 2 2 2 3 5 4 1 0 1 4 6 7 5 2 0 0 0 0
Wind_Speed
1 1 1 1 1 1 0 1 1 1 1 2 2 2 2 2 2 2 2 6 7 6 7 7 8 9 10 10 10 10 10 10 9 9 9 10 9 9 9 9 9 9 9
1 1 1 1 1 1 1 1 1 0 0 0 1 1 2 2 1 2 2 5 8 7 7 7 8 8 9 10 10 10 11 11 10 10 10 10 10 10 10 10 9 9 9
2 1 1 1 2 1 1 0 0 0 0 1 1 1 1 1 1 1 1 1 4 6 6 6 7 8 10 10 10 10 10 10 10 10 10 10 10 10 10 10 10 9 9
2 2 2 2 2 1 1 1 1 0 0 0 0 1 1 1 1 2 2 1 1 2 5 6 6 7 8 9 10 10 9 9 9 10 10 11 11 10 10 10 10 10 9
1 1 2 2 2 1 1 2 2 1 0 0 1 1 1 1 1 1 1 1 1 2 2 5 6 5 6 7 8 9 9 9 9 8 9 10 10 10 10 10 10 10 10
1 2 1 1 2 1 1 1 1 1 1 1 1 1 1 1 1 1 2 1 1 2 2 2 4 6 7 6 6 7 8 8 8 8 8 8 9 9 10 10 10 10 9
1 1 1 0 2 1 2 2 1 0 0 0 1 2 2 2 2 1 1 1 1 1 1 2 2 2 4 8 6 6 6 7 7 7 7 8 8 9 9 10 10 10 10
1 1 1 1 1 1 1 2 1 2 1 0 2 1 1 3 2 2 2 2 1 1 2 3 3 3 3 3 5 7 7 7 7 7 7 7 7 7 8 9 10 10 10
0 2 1 2 2 2 1 1 2 1 1 1 1 2 2 1 1 2 1 1 1 2 2 2 3 3 3 3 3 7 7 6 7 7 7 7 7 7 8 8 9 10 10
0 1 1 1 2 1 1 1 2 2 2 1 0 1 2 2 2 1 2 2 2 2 2 2 2 3 3 3 2 2 4 5 6 6 7 7 7 7 7 8 8 9 10
1 0 0 1 1 1 2 3 2 3 2 2 2 1 1 1 3 3 2 2 2 1 1 2 2 2 2 3 3 2 4 4 5 6 6 6 7 8 8 8 9 10 10
1 1 1 0 1 1 1 1 2 1 2 3 3 2 2 2 2 2 3 3 3 2 2 1 2 2 2 3 2 2 3 3 4 4 5 5 6 7 8 8 9 9 10
1 1 1 1 1 1 1 2 1 2 2 2 3 3 2 3 3 3 3 3 3 2 2 3 2 3 3 2 1 1 3 3 3 3 3 4 4 5 6 7 7 8 9
1 1 1 2 1 2 2 2 2 2 1 2 2 3 3 3 3 3 3 4 4 3 3 3 2 2 2 2 1 3 2 4 3 3 3 3 4 5 5 6 6 6 6
2 2 2 2 2 2 2 3 2 2 2 3 2 2 3 2 3 3 3 4 4 5 3 2 3 2 2 2 1 3 4 4 4 4 4 4 4 5 6 6 6 6 6
2 3 3 2 2 2 2 3 3 2 3 2 2 3 4 3 2 3 3 3 4 5 5 3 3 3 2 3 2 4 4 5 7 7 6 4 4 4 5 6 7 7 7
3 3 3 3 3 3 3 3 4 3 4 3 3 3 3 3 3 3 3 3 3 4 5 5 3 2 3 5 3 4 5 5 4 7 6 5 5 5 5 5 5 6 6
4 3 3 3 3 3 3 4 5 4 4 4 4 3 3 3 3 4 3 3 3 4 5 6 4 3 4 4 4 5 5 4 4 5 6 6 6 6 6 6 7 6 6
4 4 3 4 4 4 3 4 4 5 5 4 4 4 3 3 3 3 3 4 3 4 4 5 5 3 3 3 3 5 5 4 5 4 8 8 7 7 7 7 7 7 6
4 4 3 4 4 4 3 4 4 4 5 5 4 4 4 3 3 4 3 4 4 5 4 5 5 4 3 3 3 4 4 3 4 4 3 5 7 9 9 8 8 7 6
4 3 4 3 3 3 2 3 4 4 4 5 4 4 4 3 2 3 4 4 4 5 4 4 5 4 4 3 4 4 4 4 5 4 4 4 5 6 7 9 9 7 6
3 3 4 4 4 2 1 2 4 4 4 4 4 4 4 4 3 4 4 5 5 5 5 5 5 5 5 5 4 5 5 5 5 3 4 5 4 5 5 4 5 6 7
4 4 4 3 3 1 1 1 4 5 4 4 4 3 4 2 3 4 4 6 6 7 7 7 6 6 6 5 6 7 5 6 6 4 5 6 5 5 4 2 7 7 7
4 4 3 3 2 1 0 2 4 6 4 4 4 4 3 3 2 3 5 4 5 5 6 6 6 6 6 5 6 7 7 7 6 5 5 6 5 5 4 2 6 7 7
4 4 4 3 3 2 1 2 5 4 3 4 4 4 4 3 1 4 5 5 5 5 5 6 6 6 6 6 6 6 6 6 6 5 4 5 5 5 4 4 4 8 8
4 4 3 3 3 2 2 2 4 4 3 4 3 4 2 2 2 4 5 5 6 6 6 5 6 7 8 7 8 7 6 6 6 5 3 4 5 5 5 3 3 4 5
Wind_Direction
40 39 37 15 357 13 66 253 227 179 200 202 218 216 226 240 250 233 160 168 186 201 210 214 211 209 208 207 204 202 200 200 201 204 208 206 204 204 207 211 211 211 212
25 356 28 18 4 357 8 324 341 202 242 173 221 247 252 239 227 243 225 178 184 195 209 216 215 211 211 208 206 207 206 206 207 210 211 211 210 208 208 210 213 213 212
38 350 359 349 2 357 351 318 10 330 222 204 205 216 223 250 205 224 231 220 188 181 192 208 213 209 208 210 209 211 211 210 211 214 214 213 212 212 213 213 216 218 216
24 335 345 357 358 332 350 347 331 357 55 10 284 262 199 191 204 213 208 199 217 198 178 188 203 208 210 209 210 209 210 212 216 218 217 215 214 215 217 216 216 218 219
36 328 350 3 326 343 335 330 39 336 75 165 194 189 228 215 208 195 207 208 190 227 196 167 184 193 199 202 209 210 212 212 213 216 217 216 216 217 218 218 219 219 220
52 318 286 351 313 336 339 12 14 359 294 237 221 145 203 186 191 164 227 193 199 211 209 191 190 184 188 199 204 209 210 210 208 212 218 221 219 220 221 222 223 223 223
124 303 318 28 310 347 340 335 319 212 203 236 208 172 169 176 163 174 201 211 189 199 200 207 230 226 181 182 192 200 206 210 210 210 216 222 224 223 223 222 222 223 225
283 195 336 312 347 334 346 340 329 325 2 11 300 269 192 167 179 160 184 195 219 222 216 208 210 220 242 194 164 187 208 218 222 221 222 226 227 229 228 223 219 221 225
315 352 5 333 347 330 29 356 337 340 341 1 344 312 303 335 102 145 170 181 220 251 245 230 225 216 226 223 198 178 199 216 226 230 231 231 230 231 235 231 224 223 227
180 0 350 357 344 1 20 324 33 327 316 316 202 303 322 341 301 236 190 180 191 235 266 264 246 221 220 225 204 165 188 213 226 235 240 240 234 233 236 234 229 227 229
166 250 337 351 353 7 20 356 0 329 323 317 310 285 256 243 264 278 275 267 234 231 232 240 260 257 233 234 231 187 179 205 223 234 240 242 241 239 239 237 234 234 234
174 169 200 286 297 5 12 330 322 322 329 325 311 307 291 286 280 278 272 266 272 267 261 259 258 257 250 247 239 111 186 205 220 231 238 240 243 245 245 242 240 241 239
181 165 221 244 289 310 304 309 300 325 318 306 292 298 301 288 293 285 283 283 279 270 259 245 245 253 257 262 244 142 187 191 214 229 237 241 245 248 244 241 243 246 245
204 169 210 216 249 278 285 289 284 277 293 289 296 304 292 290 289 284 282 286 279 266 246 258 265 258 268 265 67 233 220 174 200 224 235 241 245 247 244 240 241 247 249
202 189 214 219 234 252 269 269 280 284 283 283 290 282 281 283 278 281 278 279 284 284 277 244 254 259 261 256 208 252 255 192 210 224 227 234 239 242 243 240 240 243 246
205 205 218 231 238 244 250 258 250 258 270 277 289 299 291 291 293 280 277 276 277 282 287 289 276 272 281 273 213 264 261 202 212 214 215 225 235 243 244 242 241 242 243
205 210 219 231 238 245 252 257 265 265 270 277 280 275 272 290 290 285 282 282 283 280 276 287 287 286 274 278 275 270 259 251 226 196 204 220 231 243 247 246 244 245 245
216 211 223 235 246 251 258 261 263 260 262 268 270 270 266 263 274 287 294 287 285 282 277 283 285 278 268 263 268 270 267 260 264 184 195 212 227 234 239 243 243 241 240
218 220 224 237 250 257 260 263 266 260 258 263 266 264 264 265 273 284 284 286 286 281 278 278 281 281 270 269 271 270 272 269 264 211 200 207 216 225 231 236 238 236 234
215 223 228 237 247 252 261 268 264 257 255 260 263 264 263 260 268 276 273 280 287 287 280 277 279 276 272 271 267 270 268 260 268 266 249 235 213 215 221 224 228 229 229
216 220 230 231 243 244 266 276 268 253 252 255 255 256 258 260 292 293 298 302 295 287 286 281 281 283 280 285 281 282 278 276 266 267 265 252 231 235 222 215 216 217 223
223 228 229 233 244 266 24 322 290 266 255 255 257 258 254 228 232 243 263 281 288 285 291 290 281 284 288 286 293 284 284 283 281 273 277 273 262 256 251 240 187 193 211
217 229 235 241 247 257 32 311 290 272 262 268 271 273 279 286 260 266 245 236 248 250 259 274 282 287 288 293 291 283 279 280 286 292 281 276 267 263 259 215 156 181 201
219 224 230 234 239 217 161 265 275 254 260 266 270 272 275 286 303 300 280 276 273 266 259 263 278 280 285 292 282 276 278 271 267 258 257 269 272 270 272 242 162 182 198
227 232 227 228 234 228 187 266 270 254 250 256 261 264 265 260 313 297 274 274 279 278 248 244 261 267 273 273 277 274 272 273 275 276 256 267 274 277 268 252 195 189 200
225 235 229 229 234 246 182 247 274 261 259 258 250 240 213 257 286 276 269 273 276 285 290 278 256 247 248 239 235 253 267 269 276 279 269 267 273 282 274 253 234 212 216